| time (UTC) | temp F | wind direction | speed MPH | gust MPH | rain 1hr in | rain 24hr in | rain mn in | humidity % | barometer mb |
| 20260502203003 | 40 | 226 | 2.0 | 9.0 | 0.00 | 0.11 | 0.11 | 72 | 1010.3 |
| 20260502202003 | 40 | 250 | 2.0 | 8.0 | 0.00 | 0.11 | 0.11 | 73 | 1010.3 |
| 20260502201003 | 40 | 254 | 2.0 | 6.0 | 0.00 | 0.11 | 0.11 | 72 | 1010.4 |
| 20260502200003 | 40 | 237 | 4.0 | 9.0 | 0.00 | 0.11 | 0.11 | 72 | 1010.5 |
| 20260502195003 | 40 | 240 | 3.0 | 7.0 | 0.00 | 0.11 | 0.11 | 73 | 1010.6 |
| 20260502194003 | 40 | 295 | 3.0 | 6.0 | 0.00 | 0.11 | 0.11 | 75 | 1010.4 |
| 20260502193003 | 40 | 244 | 3.0 | 8.0 | 0.00 | 0.11 | 0.11 | 75 | 1010.6 |
| 20260502192003 | 40 | 234 | 1.0 | 4.0 | 0.00 | 0.11 | 0.11 | 78 | 1010.6 |
| 20260502191003 | 39 | 236 | 2.0 | 5.0 | 0.00 | 0.11 | 0.11 | 79 | 1010.6 |
| 20260502190004 | 39 | 259 | 2.0 | 5.0 | 0.00 | 0.11 | 0.11 | 79 | 1010.7 |
| 20260502185003 | 39 | 229 | 4.0 | 11.0 | 0.00 | 0.11 | 0.11 | 78 | 1010.6 |
| 20260502184003 | 40 | 232 | 4.0 | 10.0 | 0.00 | 0.11 | 0.11 | 77 | 1010.4 |
| 20260502182003 | 40 | 229 | 3.0 | 6.0 | 0.00 | 0.11 | 0.11 | 76 | 1010.4 |
| 20260502181003 | 40 | 221 | 4.0 | 10.0 | 0.00 | 0.11 | 0.11 | 76 | 1010.4 |
| 20260502164003 | 39 | 237 | 3.0 | 6.0 | 0.00 | 0.11 | 0.11 | 81 | 1010.3 |
| 20260502163024 | 40 | 211 | 2.0 | 9.0 | 0.00 | 0.11 | 0.11 | 80 | 1010.3 |
| 20260502162003 | 40 | 248 | 3.0 | 9.0 | 0.01 | 0.11 | 0.11 | 80 | 1010.4 |
| 20260502161003 | 39 | 301 | 3.0 | 7.0 | 0.01 | 0.11 | 0.11 | 83 | 1010.4 |
| 20260502152003 | 40 | 228 | 5.0 | 16.0 | 0.00 | 0.10 | 0.10 | 81 | 1010.3 |
| 20260502151003 | 42 | 249 | 3.0 | 7.0 | 0.00 | 0.10 | 0.10 | 75 | 1010.0 |
| 20260502123003 | 38 | 225 | 1.0 | 3.0 | 0.00 | 0.10 | 0.10 | 90 | 1010.3 |
| 20260502122003 | 38 | 225 | 1.0 | 3.0 | 0.00 | 0.10 | 0.10 | 91 | 1010.4 |
| 20260502121003 | 38 | 224 | 0.0 | 3.0 | 0.00 | 0.10 | 0.10 | 92 | 1010.4 |
| 20260502115003 | 38 | 216 | 1.0 | 5.0 | 0.00 | 0.10 | 0.10 | 93 | 1010.5 |
| 20260502114003 | 37 | 128 | 1.0 | 4.0 | 0.00 | 0.10 | 0.10 | 93 | 1010.4 |
| 20260502113024 | 37 | 116 | 0.0 | 3.0 | 0.00 | 0.10 | 0.10 | 93 | 1010.4 |
| 20260502112003 | 37 | 41 | 0.0 | 2.0 | 0.00 | 0.10 | 0.10 | 93 | 1010.5 |
| 20260502111024 | 37 | 14 | 1.0 | 3.0 | 0.00 | 0.10 | 0.10 | 93 | 1010.5 |
| 20260502110024 | 37 | 62 | 0.0 | 4.0 | 0.00 | 0.10 | 0.10 | 93 | 1010.4 |
| 20260502105024 | 37 | 0 | 0.0 | 0.0 | 0.00 | 0.10 | 0.10 | 93 | 1010.3 |
| 20260502104003 | 37 | 0 | 0.0 | 0.0 | 0.00 | 0.10 | 0.10 | 93 | 1010.1 |
| 20260502103024 | 37 | 0 | 0.0 | 0.0 | 0.00 | 0.10 | 0.10 | 93 | 1010.1 |
| 20260502102024 | 37 | 0 | 0.0 | 0.0 | 0.00 | 0.10 | 0.10 | 93 | 1010.2 |
| 20260502101003 | 37 | 0 | 0.0 | 0.0 | 0.00 | 0.10 | 0.10 | 93 | 1010.1 |
| 20260502091003 | 36 | 0 | 0.0 | 0.0 | 0.01 | 0.10 | 0.10 | 92 | 1009.7 |
| 20260502071003 | 37 | 0 | 0.0 | 0.0 | 0.02 | 0.09 | 0.09 | 92 | 1009.8 |
| 20260502070004 | 37 | 0 | 0.0 | 0.0 | 0.02 | 0.09 | 0.09 | 91 | 1009.7 |
| 20260502065003 | 37 | 0 | 0.0 | 0.0 | 0.03 | 0.09 | 0.09 | 91 | 1009.7 |
| 20260502064003 | 37 | 0 | 0.0 | 0.0 | 0.02 | 0.08 | 0.08 | 91 | 1009.8 |
| 20260502063003 | 37 | 0 | 0.0 | 0.0 | 0.03 | 0.08 | 0.08 | 91 | 1009.8 |
| 20260502062004 | 37 | 0 | 0.0 | 0.0 | 0.03 | 0.07 | 0.07 | 90 | 1010.0 |
| 20260502061025 | 38 | 0 | 0.0 | 0.0 | 0.04 | 0.07 | 0.07 | 90 | 1010.0 |
| 20260502060003 | 38 | 0 | 0.0 | 0.0 | 0.05 | 0.07 | 0.07 | 90 | 1010.0 |
| 20260502055003 | 38 | 0 | 0.0 | 0.0 | 0.04 | 0.06 | 0.06 | 90 | 1010.0 |
| 20260502054003 | 38 | 0 | 0.0 | 0.0 | 0.05 | 0.06 | 0.06 | 89 | 1010.0 |
| 20260502053003 | 38 | 0 | 0.0 | 0.0 | 0.04 | 0.05 | 0.05 | 89 | 1010.0 |
| 20260502052025 | 39 | 0 | 0.0 | 0.0 | 0.03 | 0.04 | 0.04 | 90 | 1009.9 |
| 20260502051024 | 39 | 0 | 0.0 | 0.0 | 0.03 | 0.03 | 0.03 | 90 | 1010.0 |
| 20260502050003 | 39 | 0 | 0.0 | 0.0 | 0.02 | 0.02 | 0.02 | 89 | 1010.0 |
| 20260502045003 | 39 | 0 | 0.0 | 0.0 | 0.02 | 0.02 | 0.02 | 90 | 1010.0 |
| 20260502044003 | 39 | 0 | 0.0 | 0.0 | 0.01 | 0.01 | 0.01 | 90 | 1010.0 |
| 20260502043003 | 39 | 0 | 0.0 | 0.0 | 0.01 | 0.01 | 0.01 | 90 | 1010.0 |
| 20260502042003 | 39 | 0 | 0.0 | 0.0 | 0.01 | 0.01 | 0.01 | 89 | 1010.0 |
| 20260502041003 | 40 | 0 | 0.0 | 0.0 | 0.00 | 0.00 | 0.00 | 89 | 1010.0 |
| 20260502040004 | 40 | 0 | 0.0 | 0.0 | 0.00 | 0.00 | 0.00 | 88 | 1010.0 |
| 20260502035024 | 40 | 0 | 0.0 | 0.0 | 0.00 | 0.00 | 0.00 | 87 | 1010.1 |
| 20260502034024 | 40 | 0 | 0.0 | 0.0 | 0.00 | 0.00 | 0.00 | 87 | 1010.0 |
| 20260502033003 | 40 | 0 | 0.0 | 0.0 | 0.00 | 0.01 | 0.00 | 86 | 1010.1 |
| 20260502032003 | 40 | 0 | 0.0 | 0.0 | 0.00 | 0.01 | 0.00 | 84 | 1010.1 |
| 20260502031003 | 40 | 0 | 0.0 | 0.0 | 0.00 | 0.01 | 0.00 | 84 | 1010.1 |
| 20260502030003 | 40 | 0 | 0.0 | 0.0 | 0.00 | 0.01 | 0.00 | 83 | 1010.1 |
| 20260502025003 | 41 | 0 | 0.0 | 0.0 | 0.00 | 0.01 | 0.00 | 81 | 1010.3 |
| 20260502024004 | 41 | 0 | 0.0 | 0.0 | 0.00 | 0.03 | 0.00 | 80 | 1010.3 |
| 20260502023003 | 42 | 0 | 0.0 | 0.0 | 0.00 | 0.05 | 0.00 | 78 | 1010.3 |
| 20260502022004 | 42 | 0 | 0.0 | 0.0 | 0.00 | 0.06 | 0.00 | 75 | 1010.4 |
| 20260502021003 | 42 | 108 | 0.0 | 2.0 | 0.00 | 0.06 | 0.00 | 71 | 1010.4 |
| 20260502020003 | 43 | 0 | 0.0 | 0.0 | 0.00 | 0.06 | 0.00 | 70 | 1010.3 |
| 20260502015003 | 43 | 107 | 2.0 | 6.0 | 0.00 | 0.07 | 0.00 | 70 | 1010.3 |
| 20260502014003 | 43 | 135 | 0.0 | 3.0 | 0.00 | 0.09 | 0.00 | 68 | 1010.4 |
| 20260502013003 | 43 | 0 | 0.0 | 0.0 | 0.00 | 0.09 | 0.00 | 68 | 1010.3 |
| 20260502012003 | 44 | 0 | 0.0 | 0.0 | 0.00 | 0.09 | 0.00 | 65 | 1010.2 |
| 20260502011003 | 44 | 0 | 0.0 | 0.0 | 0.00 | 0.09 | 0.00 | 64 | 1010.2 |
| 20260502010024 | 44 | 221 | 0.0 | 1.0 | 0.00 | 0.09 | 0.00 | 62 | 1010.2 |
| 20260502005003 | 45 | 221 | 0.0 | 2.0 | 0.00 | 0.09 | 0.00 | 60 | 1010.2 |
| 20260502004003 | 45 | 211 | 1.0 | 4.0 | 0.00 | 0.10 | 0.00 | 59 | 1010.2 |
| 20260502003003 | 45 | 137 | 1.0 | 4.0 | 0.00 | 0.10 | 0.00 | 57 | 1010.1 |
| 20260502002024 | 46 | 306 | 1.0 | 5.0 | 0.00 | 0.10 | 0.00 | 55 | 1010.1 |
| 20260502001024 | 46 | 246 | 1.0 | 4.0 | 0.00 | 0.10 | 0.00 | 55 | 1009.9 |
| 20260502000003 | 46 | 228 | 2.0 | 7.0 | 0.00 | 0.11 | 0.00 | 54 | 1009.8 |
| 20260501235003 | 46 | 237 | 3.0 | 8.0 | 0.00 | 0.12 | 0.00 | 52 | 1009.8 |
| 20260501234003 | 47 | 80 | 0.0 | 2.0 | 0.00 | 0.12 | 0.00 | 54 | 1009.5 |
| 20260501233003 | 47 | 80 | 0.0 | 4.0 | 0.00 | 0.12 | 0.00 | 52 | 1009.3 |
| 20260501232003 | 47 | 78 | 1.0 | 2.0 | 0.00 | 0.12 | 0.00 | 48 | 1009.1 |
| 20260501231024 | 47 | 77 | 0.0 | 2.0 | 0.00 | 0.12 | 0.00 | 53 | 1009.0 |
| 20260501230003 | 48 | 0 | 0.0 | 0.0 | 0.00 | 0.12 | 0.00 | 53 | 1008.9 |
| 20260501225003 | 48 | 0 | 0.0 | 0.0 | 0.00 | 0.12 | 0.00 | 53 | 1008.7 |
| 20260501224003 | 48 | 77 | 0.0 | 2.0 | 0.00 | 0.12 | 0.00 | 50 | 1008.8 |
| 20260501223003 | 48 | 0 | 0.0 | 0.0 | 0.00 | 0.12 | 0.00 | 48 | 1008.7 |
| 20260501222003 | 48 | 77 | 0.0 | 2.0 | 0.00 | 0.12 | 0.00 | 46 | 1008.8 |
| 20260501221003 | 48 | 76 | 1.0 | 6.0 | 0.00 | 0.12 | 0.00 | 44 | 1008.7 |
| 20260501220003 | 49 | 236 | 2.0 | 5.0 | 0.00 | 0.12 | 0.00 | 45 | 1008.7 |
| 20260501215003 | 49 | 266 | 2.0 | 5.0 | 0.00 | 0.12 | 0.00 | 45 | 1008.7 |
| 20260501214024 | 49 | 252 | 2.0 | 6.0 | 0.00 | 0.12 | 0.00 | 46 | 1008.8 |
| 20260501213024 | 48 | 285 | 0.0 | 2.0 | 0.00 | 0.12 | 0.00 | 45 | 1008.7 |
| 20260501212025 | 49 | 285 | 1.0 | 3.0 | 0.00 | 0.12 | 0.00 | 45 | 1008.7 |
| 20260501211003 | 49 | 242 | 1.0 | 4.0 | 0.00 | 0.12 | 0.00 | 45 | 1008.5 |
| 20260501210004 | 50 | 354 | 3.0 | 5.0 | 0.00 | 0.12 | 0.00 | 42 | 1008.7 |
| 20260501205003 | 50 | 185 | 1.0 | 4.0 | 0.00 | 0.12 | 0.00 | 49 | 1008.6 |
| 20260501204004 | 49 | 91 | 1.0 | 7.0 | 0.00 | 0.12 | 0.00 | 44 | 1008.6 |